Watonga, OK

1:45 AM CDT on August 27, 2016 (GMT -0500)
Watonga

Weather History for KJWG - December, 2013

Change the Weather History Date:

Wednesday, December 4, 2013

  Actual Average Record
Temperature  
Mean Temperature 40 °F -  
Max Temperature 53 °F 52 °F 71 °F (1965)
Min Temperature 27 °F 30 °F 16 °F (1972)
Degree Days  
Heating Degree Days 24    
Moisture  
Dew Point 29 °F    
Average Humidity 72    
Maximum Humidity 92    
Minimum Humidity 53    
Precipitation  
Precipitation 0.00 in - - ()
Sea Level Pressure  
Sea Level Pressure 29.78 in    
Wind  
Wind Speed 12 mph (NNW)    
Max Wind Speed 20 mph    
Max Gust Speed 29 mph    
Visibility 10 miles    
Events      
Averages and records for this station are not official NWS values.
T = Trace of Precipitation, MM = Missing Value Source: NWS Daily Summary

Daily Weather History Graph

Daily Weather History Graph

Search for Another Location

Airport or City:

Trip Planner

Search our weather history database for the weather conditions in past years. The results will help you decide how hot, cold, wet, or windy it might be!

Date:

Astronomy

Dec. 04, 2013 Rise Set
Actual Time 7:28 AM CST 5:19 PM CST
Civil Twilight 7:00 AM CST 5:47 PM CST
Nautical Twilight 6:28 AM CST 6:19 PM CST
Astronomical Twilight 5:57 AM CST 6:50 PM CST
Moon 8:59 AM CST (12/4) 7:30 PM CST (12/4)
Length of Visible Light 10h 47m
Length of Day
9h 51m
Waxing Crescent, 4% of the Moon is Illuminated
Dec 4
Waxing Crescent
Dec 9
First Quarter
Dec 17
Full
Dec 25
Last Quarter
Jan 1
New

Hourly Weather History & Observations

Time (CST) Temp. Windchill Dew Point Humidity Pressure Visibility Wind Dir Wind Speed Gust Speed Precip Events Conditions
12:15 AM 51.8 °F - 39.2 °F 62% 29.49 in 10.0 mi South 8.1 mph - N/A   Clear
12:35 AM 52.3 °F - 39.2 °F 61% 29.48 in 10.0 mi South 8.1 mph - N/A   Clear
12:55 AM 51.3 °F - 38.7 °F 62% 29.47 in 10.0 mi South 8.1 mph - N/A   Clear
1:15 AM 52.3 °F - 38.3 °F 59% 29.47 in 10.0 mi South 8.1 mph - N/A   Clear
1:35 AM 52.7 °F - 37.8 °F 57% 29.47 in 10.0 mi South 6.9 mph - N/A   Clear
1:55 AM 51.8 °F - 37.4 °F 58% 29.48 in 10.0 mi South 5.8 mph - N/A   Clear
2:15 AM 52.7 °F - 37.2 °F 56% 29.47 in 10.0 mi South 8.1 mph - N/A   Clear
2:35 AM 53.6 °F - 36.7 °F 53% 29.48 in 10.0 mi South 5.8 mph - N/A   Clear
2:55 AM 52.3 °F - 36.1 °F 54% 29.51 in 10.0 mi West 12.7 mph 18.4 mph N/A   Clear
3:15 AM 51.8 °F - 36.5 °F 56% 29.51 in 10.0 mi WNW 9.2 mph 18.4 mph N/A   Clear
3:35 AM 47.5 °F - 37.0 °F 67% 29.53 in 10.0 mi West 9.2 mph - N/A   Clear
3:55 AM 46.9 °F - 37.4 °F 69% 29.54 in 10.0 mi WNW 17.3 mph - N/A   Clear
4:15 AM 43.3 °F 35.2 °F 39.2 °F 85% 29.56 in 10.0 mi WNW 18.4 mph 26.5 mph N/A   Clear
4:35 AM 41.9 °F 35.0 °F 39.4 °F 91% 29.59 in 10.0 mi NW 12.7 mph 16.1 mph N/A   Mostly Cloudy
4:55 AM 40.5 °F 32.5 °F 38.1 °F 91% 29.61 in 7.0 mi NW 15.0 mph 24.2 mph N/A   Overcast
5:15 AM 40.1 °F 31.6 °F 37.2 °F 89% 29.63 in 7.0 mi NW 16.1 mph - N/A   Overcast
5:35 AM 39.9 °F 31.8 °F 36.7 °F 88% 29.63 in 7.0 mi NW 15.0 mph 18.4 mph N/A   Overcast
5:55 AM 39.2 °F 29.6 °F 36.3 °F 89% 29.65 in 7.0 mi NW 19.6 mph 24.2 mph N/A   Overcast
6:15 AM 38.5 °F 30.7 °F 35.8 °F 90% 29.66 in 5.0 mi NW 12.7 mph 20.7 mph N/A   Overcast
6:35 AM 37.4 °F 27.2 °F 35.2 °F 92% 29.66 in 7.0 mi NNW 19.6 mph 23.0 mph N/A   Overcast
6:55 AM 36.7 °F 26.9 °F 34.3 °F 91% 29.69 in 10.0 mi NNW 17.3 mph 23.0 mph N/A   Overcast
7:15 AM 36.5 °F 29.2 °F 34.0 °F 91% 29.71 in 10.0 mi NW 10.4 mph 18.4 mph N/A   Overcast
7:35 AM 35.6 °F 27.1 °F 32.4 °F 88% 29.72 in 10.0 mi NW 12.7 mph 17.3 mph N/A   Overcast
7:55 AM 34.7 °F 24.7 °F 31.6 °F 89% 29.74 in 10.0 mi NNW 16.1 mph 20.7 mph N/A   Overcast
8:15 AM 34.7 °F 26.4 °F 31.1 °F 87% 29.75 in 10.0 mi NW 11.5 mph 17.3 mph N/A   Overcast
8:35 AM 34.0 °F 24.2 °F 30.7 °F 88% 29.75 in 10.0 mi NNW 15.0 mph 20.7 mph N/A   Overcast
8:55 AM 34.2 °F 24.0 °F 30.6 °F 87% 29.75 in 10.0 mi NNW 16.1 mph 19.6 mph N/A   Overcast
9:15 AM 34.2 °F 24.4 °F 30.4 °F 86% 29.76 in 10.0 mi NNW 15.0 mph 19.6 mph N/A   Overcast
9:35 AM 34.2 °F 25.2 °F 30.2 °F 85% 29.77 in 10.0 mi NNW 12.7 mph 18.4 mph N/A   Overcast
9:55 AM 34.2 °F 23.6 °F 29.5 °F 83% 29.78 in 10.0 mi NNW 17.3 mph 20.7 mph N/A   Mostly Cloudy
10:15 AM 35.2 °F 26.6 °F 29.8 °F 81% 29.80 in 10.0 mi NNW 12.7 mph - N/A   Mostly Cloudy
10:35 AM 35.8 °F 29.4 °F 29.7 °F 78% 29.81 in 10.0 mi NNW 8.1 mph - N/A   Mostly Cloudy
10:55 AM 35.6 °F 26.6 °F 29.7 °F 79% 29.80 in 10.0 mi NNW 13.8 mph 17.3 mph N/A   Scattered Clouds
11:15 AM 36.5 °F 29.7 °F 29.3 °F 75% 29.81 in 10.0 mi NNW 9.2 mph 17.3 mph N/A   Scattered Clouds
11:35 AM 36.9 °F 29.1 °F 28.9 °F 73% 29.80 in 10.0 mi NW 11.5 mph - N/A   Clear
11:55 AM 37.6 °F 32.3 °F 29.1 °F 72% 29.80 in 10.0 mi NNW 6.9 mph - N/A   Scattered Clouds
12:15 PM 38.1 °F 30.7 °F 29.1 °F 70% 29.81 in 10.0 mi NNW 11.5 mph - N/A   Clear
12:35 PM 37.9 °F 30.0 °F 28.8 °F 70% 29.79 in 10.0 mi NW 12.7 mph 16.1 mph N/A   Scattered Clouds
12:55 PM 37.9 °F 31.5 °F 28.0 °F 68% 29.80 in 10.0 mi NW 9.2 mph 16.1 mph N/A   Clear
1:15 PM 38.7 °F 32.9 °F 28.2 °F 66% 29.80 in 10.0 mi NW 8.1 mph - N/A   Clear
1:35 PM 38.7 °F 31.8 °F 27.5 °F 64% 29.80 in 10.0 mi NNW 10.4 mph - N/A   Clear
1:55 PM 39.2 °F 31.6 °F 28.0 °F 64% 29.79 in 10.0 mi NNW 12.7 mph 16.1 mph N/A   Clear
2:15 PM 39.4 °F 32.3 °F 27.9 °F 63% 29.79 in 10.0 mi NNW 11.5 mph - N/A   Clear
2:35 PM 39.2 °F 31.6 °F 27.9 °F 64% 29.80 in 10.0 mi NW 12.7 mph - N/A   Clear
2:55 PM 39.4 °F 33.8 °F 27.0 °F 61% 29.80 in 10.0 mi NNW 8.1 mph 17.3 mph N/A   Clear
3:15 PM 39.4 °F 32.3 °F 26.8 °F 61% 29.80 in 10.0 mi North 11.5 mph 16.1 mph N/A   Clear
3:35 PM 39.6 °F 31.7 °F 27.3 °F 62% 29.82 in 10.0 mi NNE 13.8 mph 20.7 mph N/A   Clear
3:55 PM 38.1 °F 29.5 °F 26.6 °F 63% 29.85 in 10.0 mi North 15.0 mph - N/A   Clear
4:15 PM 36.3 °F 27.5 °F 26.1 °F 66% 29.86 in 10.0 mi North 13.8 mph - N/A   Clear
4:35 PM 35.2 °F 26.6 °F 25.9 °F 69% 29.86 in 10.0 mi North 12.7 mph 18.4 mph N/A   Clear
4:55 PM 34.3 °F 24.2 °F 25.3 °F 70% 29.87 in 10.0 mi North 16.1 mph 20.7 mph N/A   Clear
5:15 PM 32.5 °F 23.2 °F 24.8 °F 73% 29.89 in 10.0 mi North 12.7 mph - N/A   Clear
5:35 PM 32.0 °F 23.6 °F 24.4 °F 74% 29.90 in 10.0 mi North 10.4 mph - N/A   Clear
5:55 PM 31.5 °F 23.5 °F 24.3 °F 75% 29.90 in 10.0 mi North 9.2 mph - N/A   Clear
6:15 PM 31.5 °F 21.8 °F 23.9 °F 74% 29.92 in 10.0 mi NNW 12.7 mph - N/A   Clear
6:35 PM 31.1 °F 21.4 °F 23.2 °F 72% 29.93 in 10.0 mi North 12.7 mph - N/A   Clear
6:55 PM 30.6 °F 19.8 °F 22.6 °F 72% 29.92 in 10.0 mi North 15.0 mph - N/A   Clear
7:15 PM 30.0 °F 20.5 °F 22.1 °F 72% 29.94 in 10.0 mi North 11.5 mph - N/A   Clear
7:35 PM 29.8 °F 19.8 °F 21.7 °F 72% 29.94 in 10.0 mi NNW 12.7 mph - N/A   Clear
7:55 PM 29.3 °F 17.7 °F 21.0 °F 71% 29.95 in 10.0 mi NNW 16.1 mph 21.9 mph N/A   Clear
8:15 PM 29.3 °F 18.2 °F 20.8 °F 71% 29.97 in 10.0 mi NNW 15.0 mph 18.4 mph N/A   Clear
8:35 PM 29.3 °F 18.2 °F 20.7 °F 70% 29.97 in 10.0 mi North 15.0 mph - N/A   Clear
8:55 PM 28.9 °F 18.2 °F 20.7 °F 71% 29.99 in 10.0 mi North 13.8 mph 20.7 mph N/A   Clear
9:15 PM 28.8 °F 18.4 °F 20.5 °F 71% 30.00 in 10.0 mi North 12.7 mph - N/A   Clear
9:35 PM 28.4 °F 17.0 °F 20.3 °F 72% 30.01 in 10.0 mi North 15.0 mph 19.6 mph N/A   Clear
9:55 PM 28.4 °F 17.5 °F 20.3 °F 72% 30.03 in 10.0 mi North 13.8 mph - N/A   Clear
10:15 PM 28.4 °F 17.0 °F 19.6 °F 70% 30.04 in 10.0 mi North 15.0 mph 19.6 mph N/A   Clear
10:35 PM 28.8 °F 16.6 °F 16.7 °F 61% 30.05 in 10.0 mi North 17.3 mph 28.8 mph N/A   Clear
10:55 PM 28.8 °F 16.6 °F 16.0 °F 59% 30.07 in 10.0 mi North 17.3 mph 25.3 mph N/A   Clear
11:15 PM 28.6 °F 16.0 °F 16.0 °F 59% 30.07 in 10.0 mi North 18.4 mph - N/A   Clear
11:35 PM 28.4 °F 17.0 °F 15.8 °F 59% 30.09 in 10.0 mi NNW 15.0 mph 21.9 mph N/A   Clear
11:55 PM 27.7 °F 14.8 °F 13.3 °F 55% 30.09 in 10.0 mi NNW 18.4 mph 23.0 mph N/A   Clear